Location: Unspecified
(0.0000°N, 0.0000°E)
Time: 23:35:28
(UTC+00:00)

N. Korean satellite - Pass Details

Date: 20 January 2022
Orbit: 447 x 490 km, 97.3° (Epoch: 27 January)

Event Time Altitude Azimuth Distance (km) Brightness Sun altitude
Rises 04:13:12 0° 34° (NE) 2,551 10.4 -27.5°
Reaches altitude 10° 04:15:38 10° 51° (NE) 1,672 9.6 -26.9°
Maximum altitude 04:18:23 21° 101° (E) 1,152 9.2 -26.3°
Drops below altitude 10° 04:21:07 10° 151° (SSE) 1,669 9.9 -25.7°
Sets 04:23:33 0° 167° (SSE) 2,545 10.7 -25.1°
